アシュブルック-ジャクソン彗星

47P/Ashbrook-Jackson (2025)

English version
Home page
Updated on April 10, 2022

---------------------------------------------------------------------

・ プロフィール

・ 軌道要素

Epoch 2025 Oct. 12.0 TT = JDT 2460960.5                                         
T 2025 Oct. 28.00259 TT                                 Rudenko                 
q   2.8074612            (2000.0)            P               Q                  
n   0.11799451     Peri.  357.91780     +0.99593326     +0.08925370             
a   4.1168165      Node   356.88086     -0.07905603     +0.80041161             
e   0.3180504      Incl.   13.03924     -0.04320970     +0.59276895             
P   8.35                                                                        
From 2851 observations 1965 Jan. 31-2021 Mar. 7, mean residual 0".8.            
     Nongravitational parameters A1 = +0.10, A2 = -0.0054.                      

・ 星図

・ 光度変化

        m1 = 11.5 + 5 logΔ + 10.0 log r          [    ,-610]  (              〜2024年 2月26日)
        m1 =  3.0 + 5 logΔ + 24.0 log r(t + 20)  [-610, 550]  (2024年 2月26日〜2027年 5月 1日)
        m1 = 11.5 + 5 logΔ + 10.0 log r          [ 550,    ]  (2027年 5月 1日〜              )

---------------------------------------------------------------------

軌道要素はM.P.E.C. 2021-F20に掲載されたものです。
星図はステラナビゲータ Ver.10 (アストロアーツ) で作成したものです。
光度グラフはComet for Windowsで作成したものです。

---------------------------------------------------------------------

Copyright(C) Seiichi Yoshida (comet@aerith.net). All rights reserved.